GSAT0214 (GALILEO 18)

Last updated on Sat Dec 13 2025 00:02:35 GMT+0000 (Coordinated Universal Time)

1 41862U 16069D 25345.99252498 .00000006 00000+0 00000+0 0 9994 2 41862 55.3798 106.2667 0001361 290.5776 69.3783 1.70474744 56459
UTC large
Height (km)
Speed (km/s)
/
Latitude / Longitude
Inclination (degrees)
Orbital Period (minutes)
Azimuth
Elevation
Range (km)
Doppler Factor

Next 0 passes for location: London (51.5072 / 0.1276)

Sorry there are no passes over London.